DW3384 Weather Reports


Display with metric or nautical units.
time (UTC)temp
F
wind
direction
speed
MPH
gust
MPH
rain 1hr
in
rain 24hr
in
rain mn
in
humidity
%
barometer
mb
20260507144525 50 259 9.0 18.0 0.00 0.08 0.08 79 1015.9
20260507143015 49 262 7.0 15.0 0.00 0.08 0.08 80 1016.1
20260507141513 48 259 9.0 16.0 0.00 0.08 0.08 81 1016.2
20260507140012 46 264 9.0 17.0 0.00 0.08 0.08 84 1016.4
20260507134512 45 247 6.0 14.0 0.00 0.08 0.08 84 1016.4
20260507133010 44 255 5.0 9.0 0.00 0.08 0.08 85 1016.7
20260507131509 43 240 2.0 8.0 0.00 0.08 0.08 85 1016.6
20260507130008 42 257 4.0 9.0 0.00 0.08 0.08 85 1016.7
20260507124510 41 280 6.0 9.0 0.00 0.08 0.08 85 1016.7
20260507123009 40 265 2.0 7.0 0.00 0.08 0.08 85 1016.5
20260507121506 39 252 4.0 6.0 0.00 0.08 0.08 84 1016.4
20260507120006 39 268 5.0 9.0 0.00 0.08 0.08 84 1016.5
20260507114503 40 256 4.0 8.0 0.00 0.08 0.08 84 1016.5
20260507113101 40 265 4.0 6.0 0.00 0.08 0.08 84 1016.4
20260507111602 40 287 4.0 8.0 0.00 0.08 0.08 84 1016.4
20260507110057 40 272 3.0 6.0 0.00 0.08 0.08 84 1016.4
20260507104553 41 257 3.0 6.0 0.00 0.08 0.08 84 1016.5
20260507103050 41 289 3.0 7.0 0.00 0.08 0.08 84 1016.5
20260507101549 42 290 3.0 5.0 0.00 0.08 0.08 84 1016.6
20260507100047 42 281 2.0 5.0 0.00 0.08 0.08 84 1016.6
20260507094544 43 281 3.0 6.0 0.00 0.08 0.08 84 1016.7
20260507093047 43 282 3.0 5.0 0.00 0.08 0.08 84 1016.7
20260507091545 43 275 3.0 5.0 0.00 0.08 0.08 83 1016.7
20260507090040 44 294 2.0 4.0 0.00 0.08 0.08 83 1016.5
20260507084536 44 278 3.0 5.0 0.00 0.08 0.08 83 1016.9
20260507083034 44 288 2.0 6.0 0.00 0.08 0.08 83 1016.9
20260507081533 44 274 3.0 4.0 0.00 0.08 0.08 83 1017.0
20260507080032 44 311 2.0 6.0 0.00 0.08 0.08 83 1017.1
20260507074531 45 282 2.0 6.0 0.00 0.08 0.08 83 1017.6
20260507073031 45 281 3.0 5.0 0.00 0.08 0.08 82 1017.6
20260507071529 44 278 2.0 5.0 0.01 0.08 0.08 82 1017.4
20260507070032 45 273 3.0 6.0 0.03 0.08 0.08 81 1017.5
20260507064525 45 298 2.0 6.0 0.04 0.08 0.08 81 1017.5
20260507063022 45 286 3.0 6.0 0.05 0.08 0.08 80 1017.6
20260507061520 46 306 1.0 3.0 0.05 0.07 0.07 79 1017.4
20260507060022 46 309 2.0 3.0 0.05 0.05 0.05 79 1017.9
20260507054519 46 312 2.0 3.0 0.04 0.04 0.04 79 1017.9
20260507053013 47 339 1.0 2.0 0.03 0.03 0.03 78 1017.5
20260507051511 47 284 2.0 5.0 0.02 0.02 0.02 75 1017.8